SL-8 R/B

Satellite information

Favourite Embed

Satellite Type and Status

ROCKET BODYIN ORBIT

Key statistics

Satellite SL-8 R/B at a glance.

Uptime

17280

Days in orbit

Revolutions

≈ 13.8

Per day

Orbit

LEO

Low Earth Orbit

Inclination

82.9

Latest

Satellite identification and parameters

Extended collection of information and parameters for SL-8 R/B.

Object identification

Identified? True

Debris? False

Object name: SL-8 R/B

International designator: 1978-007B

Object number (NORAD): 10600

Object ID (CCSDS): 10600

Country: COMMONWEALTH OF INDEPENDENT STATES (CIS)

Current information (Y/N): Y

RCS size: LARGE

Orbital parameters

Period: 104.439 minutes

Inclination: 82.9374 deg

SMA: 7346.3 km

Apoapsis: 1004.098 km

Periapsis: 932.232 km

RAAN: 290.7365 deg

Eccentricy: 0.0048913

Argument of periapsis: 134.0336 deg

Mean anomaly: 226.4868 deg

Mean motion: 13.78795347 rev/day

Mean motion (dot): 0.00000195 rev/day2

B* drag term: 0.00017516 1/REarth

Two-line elements (TLE)

Creation date: May 8, 2025, 10:56 p.m.

Reference frame: TEME

Reference center: EARTH

Epoch: May 8, 2025, 12:50 p.m. UTC

TLE line 0: 0 SL-8 R/B

TLE line 1: 1 10600U 78007B 25128.53509995 .00000195 00000-0 17516-3 0 9990

TLE line 2: 2 10600 82.9374 290.7365 0048913 134.0336 226.4868 13.78795347379031

Live tracking on map

Real-time ground track for satellite SL-8 R/B.

In-orbit conjunctions

A list of the most updated potential collisions computed for object SL-8 R/B.

Target Orbit TCA Probability of collision Miss distance Type
COSMOS 1275 DEB LEO 2024-12-14 03:51:08 0.0001253355 52.0 (m) DEBRIS
COSMOS 1428 LEO 2024-12-13 22:38:19 0.0002307254 295.0 (m) PAYLOAD
ELECTRON KICK STAGE R/B LEO 2024-11-17 14:22:34 0.001609794 496.0 (m) ROCKET BODY
FENGYUN 1C DEB SSO 2024-11-07 18:19:55 0.0001918697 419.0 (m) DEBRIS

Associated space launch

Navigation satellite providing location information for the Tsiklon-B navigation system

SL-8 R/B was lifted into orbit during the mission ‘Kosmos-3M | Parus 12’, on board a Kosmos-3M space rocket.

The launch took place on Jan. 17, 1978, 3:26 a.m. from 132/1 (132L).

For more information about the launch, click the button.

Launch to space Kosmos-3M | Parus 12
Kosmos-3M | Parus 12

Agency: N/A

Status: Launch Successful

Launch date: Jan. 17, 1978, 3:26 a.m. UTC

Rocket: Kosmos-3M

Launch pad: 132/1 (132L)

Location: Plesetsk Cosmodrome, Russian Federation

...

Latest news about this satellite

There are no fresh news available about this satellite. Check back as we update our databases every day.


Newsletter sign-up

Weekly statistics, charts and insights to help you stay on top of the space industry.